Location: Observatory
(52.1446°N, 0.4624°W)
Time: 02:06:20
(UTC+01:00)

ISS - Pass Details

Date: 22 May 2018
Orbit: 402 x 406 km, 51.6° (Epoch: 21 June)

Event Time Altitude Azimuth Distance (km) Brightness Sun altitude
Rises 03:34:44 0° 281° (WNW) 2,321 -0.2 -9.9°
Reaches altitude 10° 03:37:03 10° 267° (W) 1,459 -1.4 -9.7°
Maximum altitude 03:39:44 23° 212° (SSW) 896 -2.7 -9.4°
Drops below altitude 10° 03:42:24 10° 157° (SSE) 1,453 -1.3 -9.2°
Sets 03:44:42 0° 143° (SE) 2,309 -0.1 -9.0°
